Weather History for Austin Bergstrom, TX

Change the Weather History Date:

Tuesday, September 10, 2013

  Actual Average Record
Temperature  
Mean Temperature 81 °F 79 °F  
Max Temperature 91 °F 92 °F 100 °F (2000)
Min Temperature 71 °F 67 °F 52 °F (2012)
Degree Days  
Heating Degree Days 0 0  
Month to date heating degree days 0 0  
Since 1 July heating degree days 0 0  
Cooling Degree Days 16 14  
Month to date cooling degree days 193 155  
Year to date cooling degree days 2532 2295  
Growing Degree Days 34 (Base 50)    
Moisture  
Dew Point 72 °F    
Average Humidity 75    
Maximum Humidity 100    
Minimum Humidity 49    
Precipitation  
Precipitation 0.04 in 0.09 in 1.98 in (1950)
Month to date precipitation 2.52 0.88  
Year to date precipitation 21.74 21.39  
Snow  
Snow 0.00 in - - ()
Month to date snowfall 0.0  
Since 1 July snowfall 0.0  
Since 1 September snowfall 0.0  
Snow Depth 0.00 in    
Sea Level Pressure  
Sea Level Pressure 30.01 in    
Wind  
Wind Speed 5 mph (East)    
Max Wind Speed 23 mph    
Max Gust Speed 29 mph    
Visibility 7 miles    
Events Fog , Rain    
T = Trace of Precipitation, MM = Missing Value Source: NWS Daily Summary

Daily Weather History Graph

Daily Weather History Graph

Search for Another Location

Airport:

Trip Planner

Search our weather history database for the weather conditions in past years. The results will help you decide how hot, cold, wet, or windy it might be!

Date:

Astronomy

Sep. 10, 2013 Rise Set
Actual Time 7:12 AM CDT 7:41 PM CDT
Civil Twilight 6:48 AM CDT 8:06 PM CDT
Nautical Twilight 6:20 AM CDT 8:34 PM CDT
Astronomical Twilight 5:51 AM CDT 9:02 PM CDT
Moon 12:14 PM CDT (9/10) 11:12 PM CDT (9/10)
Length of Visible Light 13h 17m
Length of Day
12h 29m
Waxing Crescent, 28% of the Moon is Illuminated
Sep 10
Waxing Crescent
Sep 12
First Quarter
Sep 19
Full
Sep 26
Last Quarter
Oct 4
New

Hourly Weather History & Observations

Time (CDT) Temp. Heat Index Dew Point Humidity Pressure Visibility Wind Dir Wind Speed Gust Speed Precip Events Conditions
12:53 AM 72.0 °F - 70.0 °F 93% 29.96 in 10.0 mi Calm Calm - N/A   Scattered Clouds
1:53 AM 72.0 °F - 70.0 °F 93% 29.97 in 9.0 mi Calm Calm - N/A   Partly Cloudy
2:22 AM 71.6 °F - 69.8 °F 94% 30.00 in 9.0 mi Calm Calm - N/A   Mostly Cloudy
2:53 AM 72.0 °F - 70.0 °F 93% 29.97 in 9.0 mi Calm Calm - N/A   Scattered Clouds
3:53 AM 71.1 °F - 69.1 °F 93% 29.97 in 8.0 mi Calm Calm - N/A   Clear
4:53 AM 73.0 °F - 71.1 °F 93% 29.97 in 8.0 mi Calm Calm - N/A   Scattered Clouds
5:40 AM 71.6 °F - 71.6 °F 100% 30.00 in 8.0 mi ENE 3.5 mph - N/A   Scattered Clouds
5:53 AM 72.0 °F - 71.1 °F 97% 29.98 in 8.0 mi NE 3.5 mph - N/A Fog Patches of Fog
6:53 AM 73.0 °F - 71.1 °F 93% 29.99 in 6.0 mi ENE 3.5 mph - N/A Fog Mostly Cloudy
7:00 AM 73.4 °F - 71.6 °F 94% 30.02 in 0.5 mi East 3.5 mph - N/A Fog Overcast
7:31 AM 73.4 °F - 71.6 °F 94% 30.03 in 0.2 mi ENE 3.5 mph - N/A Fog Overcast
7:53 AM 73.0 °F - 72.0 °F 96% 30.01 in 0.2 mi ENE 3.5 mph - N/A Fog Overcast
8:43 AM 73.4 °F - 73.4 °F 100% 30.05 in 0.2 mi ENE 4.6 mph - N/A Fog Overcast
8:53 AM 73.0 °F - 73.0 °F 100% 30.03 in 0.2 mi ENE 5.8 mph - N/A Fog Overcast
9:03 AM 73.4 °F - 73.4 °F 100% 30.05 in 0.8 mi ENE 4.6 mph - N/A Fog Overcast
9:13 AM 73.4 °F - 73.4 °F 100% 30.06 in 1.5 mi ENE 5.8 mph - N/A Fog Overcast
9:19 AM 73.4 °F - 73.4 °F 100% 30.06 in 1.5 mi ESE 5.8 mph - N/A Fog Overcast
9:23 AM 75.2 °F - 73.4 °F 94% 30.06 in 2.5 mi ESE 5.8 mph - N/A Fog Overcast
9:53 AM 75.9 °F - 73.9 °F 94% 30.04 in 2.5 mi East 5.8 mph - N/A Fog Overcast
10:45 AM 80.6 °F 86.2 °F 75.2 °F 84% 30.07 in 8.0 mi ESE 4.6 mph - N/A   Mostly Cloudy
10:53 AM 81.0 °F 86.2 °F 73.9 °F 79% 30.04 in 8.0 mi ESE 5.8 mph - N/A   Mostly Cloudy
11:29 AM 82.4 °F 88.2 °F 73.4 °F 74% 30.07 in 10.0 mi ESE 4.6 mph - N/A   Mostly Cloudy
11:53 AM 84.0 °F 89.0 °F 71.1 °F 65% 30.04 in 10.0 mi ESE 8.1 mph - N/A   Mostly Cloudy
12:53 PM 87.1 °F 93.6 °F 72.0 °F 61% 30.02 in 10.0 mi SE 9.2 mph - N/A   Mostly Cloudy
1:53 PM 89.1 °F 94.1 °F 70.0 °F 53% 30.00 in 10.0 mi ESE 9.2 mph - N/A   Mostly Cloudy
2:53 PM 91.0 °F 96.6 °F 70.0 °F 50% 29.97 in 10.0 mi ENE 11.5 mph 16.1 mph N/A   Scattered Clouds
3:53 PM 79.0 °F - 73.0 °F 82% 29.97 in 5.0 mi South 16.1 mph 27.6 mph 0.02 in Rain Heavy Rain
4:53 PM 78.1 °F - 71.1 °F 79% 29.99 in 10.0 mi SE 15.0 mph - 0.02 in Rain Light Rain
5:53 PM 82.0 °F 85.9 °F 70.0 °F 67% 29.97 in 10.0 mi SSE 8.1 mph - 0.00 in   Mostly Cloudy
6:53 PM 81.0 °F 84.9 °F 71.1 °F 72% 29.99 in 10.0 mi South 5.8 mph - N/A   Mostly Cloudy
7:53 PM 78.1 °F - 72.0 °F 81% 29.99 in 10.0 mi Calm Calm - N/A   Scattered Clouds
8:53 PM 75.0 °F - 72.0 °F 90% 30.01 in 10.0 mi Calm Calm - N/A   Scattered Clouds
9:53 PM 73.9 °F - 72.0 °F 93% 30.03 in 10.0 mi Calm Calm - N/A   Mostly Cloudy
10:53 PM 73.9 °F - 72.0 °F 93% 30.04 in 10.0 mi Calm Calm - N/A   Partly Cloudy
11:53 PM 73.0 °F - 71.1 °F 93% 30.04 in 10.0 mi Calm Calm - N/A   Scattered Clouds